Weather History for KDDH - June, 2013

Change the Weather History Date:

Thursday, June 20, 2013

  Actual Average Record
Temperature  
Mean Temperature 59 °F 65 °F  
Max Temperature 76 °F 76 °F 91 °F (2012)
Min Temperature 41 °F 54 °F 41 °F (2013)
Degree Days  
Heating Degree Days 6 2  
Month to date heating degree days 100 82  
Since 1 June heating degree days 100 82  
Since 1 July heating degree days 6750 7221  
Cooling Degree Days 0 2  
Month to date cooling degree days 25 31  
Year to date cooling degree days 57 45  
Since 1 June cooling degree days 25 31  
Growing Degree Days 8 (Base 50)    
Moisture  
Dew Point 46 °F    
Average Humidity 62    
Maximum Humidity 93    
Minimum Humidity 31    
Precipitation  
Precipitation 0.00 in 0.14 in 0.06 in (2007)
Month to date precipitation 5.43 2.85  
Year to date precipitation 19.90 17.92  
Sea Level Pressure  
Sea Level Pressure 30.23 in    
Wind  
Wind Speed 2 mph (SW)    
Max Wind Speed 10 mph    
Max Gust Speed 15 mph    
Visibility 10 miles    
Events      
T = Trace of Precipitation, MM = Missing Value Source: NWS Daily Summary

Daily Weather History Graph

Daily Weather History Graph

Search for Another Location

Airport or City:

Trip Planner

Search our weather history database for the weather conditions in past years. The results will help you decide how hot, cold, wet, or windy it might be!

Date:

Astronomy

Jun. 20, 2013 Rise Set
Actual Time 5:14 AM EDT 8:35 PM EDT
Civil Twilight 4:38 AM EDT 9:10 PM EDT
Nautical Twilight 3:52 AM EDT 9:56 PM EDT
Astronomical Twilight 2:56 AM EDT 10:53 PM EDT
Moon 5:31 PM EDT (6/20) 2:42 AM EDT (6/20)
Length of Visible Light 16h 31m
Length of Day
15h 21m
Waxing Gibbous, 89% of the Moon is Illuminated
Jun 20
Waxing Gibbous
Jun 23
Full
Jun 30
Last Quarter
Jul 8
New
Jul 15
First Quarter

Hourly Weather History & Observations

Time (EDT) Temp. Windchill Dew Point Humidity Pressure Visibility Wind Dir Wind Speed Gust Speed Precip Events Conditions
12:54 AM 48.0 °F - 41.0 °F 77% 30.19 in 10.0 mi Calm Calm - N/A   Clear
1:54 AM 45.0 °F - 41.0 °F 86% 30.20 in 10.0 mi Calm Calm - N/A   Clear
2:54 AM 44.1 °F - 39.9 °F 85% 30.21 in 10.0 mi Calm Calm - N/A   Clear
3:54 AM 42.1 °F - 39.0 °F 89% 30.22 in 10.0 mi Calm Calm - N/A   Clear
4:54 AM 41.0 °F - 39.0 °F 93% 30.23 in 10.0 mi Calm Calm - N/A   Clear
5:54 AM 41.0 °F 39.0 °F 39.0 °F 93% 30.25 in 10.0 mi SSE 3.5 mph - N/A   Clear
6:54 AM 48.9 °F - 44.1 °F 83% 30.26 in 10.0 mi Calm Calm - N/A   Clear
7:54 AM 55.0 °F - 46.0 °F 72% 30.28 in 10.0 mi Calm Calm - N/A   Clear
8:54 AM 61.0 °F - 46.0 °F 58% 30.27 in 10.0 mi Calm Calm - N/A   Clear
9:54 AM 64.9 °F - 48.0 °F 54% 30.26 in 10.0 mi Calm Calm - N/A   Clear
10:54 AM 66.9 °F - 48.9 °F 52% 30.27 in 10.0 mi West 6.9 mph - N/A   Clear
11:54 AM 69.1 °F - 48.0 °F 47% 30.26 in 10.0 mi Calm Calm - N/A   Clear
12:54 PM 71.1 °F - 46.0 °F 41% 30.25 in 10.0 mi Calm Calm - N/A   Clear
1:54 PM 73.0 °F - 41.0 °F 31% 30.25 in 10.0 mi Variable 6.9 mph - N/A   Clear
2:54 PM 73.0 °F - 45.0 °F 37% 30.24 in 10.0 mi West 6.9 mph - N/A   Clear
3:54 PM 75.0 °F - 46.9 °F 37% 30.24 in 10.0 mi WNW 6.9 mph - N/A   Clear
4:54 PM 75.0 °F - 48.0 °F 38% 30.22 in 10.0 mi Variable 3.5 mph - N/A   Clear
5:54 PM 75.0 °F - 48.0 °F 38% 30.22 in 10.0 mi West 3.5 mph - N/A   Clear
6:54 PM 73.9 °F - 51.1 °F 45% 30.21 in 10.0 mi Calm Calm - N/A   Clear
7:54 PM 68.0 °F - 55.9 °F 65% 30.21 in 10.0 mi Calm Calm - N/A   Clear
8:54 PM 62.1 °F - 55.9 °F 80% 30.22 in 10.0 mi SSE 4.6 mph - N/A   Clear
9:54 PM 64.0 °F - 52.0 °F 65% 30.22 in 10.0 mi ESE 4.6 mph - N/A   Clear
10:54 PM 57.0 °F - 52.0 °F 83% 30.22 in 10.0 mi Calm Calm - N/A   Clear
11:54 PM 55.9 °F - 52.0 °F 87% 30.24 in 10.0 mi Calm Calm - N/A   Clear